Location: Newark
(40.7360°N, 74.1730°W)
Time: 08:09:48
(UTC-04:00)

ISS - All Passes

Search period start: 29 July 2016 00:00
Search period end: 08 August 2016 00:00
Orbit: 401 x 404 km, 51.6° (Epoch: 29 July)

Date Brightness Start Highest point End Pass type
(mag) Time Alt. Az. Time Alt. Az. Time Alt. Az.
29 Jul - 00:36:51 10° NNW 00:38:19 12° N 00:39:47 10° NNE visible
29 Jul - 02:12:53 10° NW 02:15:37 24° NNE 02:18:22 10° E visible
29 Jul - 03:49:03 10° WNW 03:52:13 50° SW 03:55:22 10° SE visible
29 Jul - 20:27:55 10° SW 20:31:06 54° SE 20:34:17 10° ENE daylight
29 Jul - 22:05:01 10° W 22:07:42 23° NNW 22:10:25 10° NNE visible
29 Jul - 23:43:35 10° NNW 23:45:03 12° N 23:46:30 10° NNE visible
30 Jul - 01:20:09 10° NNW 01:22:28 18° NNE 01:24:48 10° ENE visible
30 Jul - 02:56:03 10° NW 02:59:19 81° NE 03:02:34 10° SE night (unlit)
30 Jul - 04:34:30 10° WSW 04:35:17 11° SW 04:36:05 10° SW night (unlit)
30 Jul - 19:35:28 10° SSW 19:38:17 27° SE 19:41:05 10° ENE daylight
30 Jul - 21:11:36 10° W 21:14:38 35° NNW 21:17:40 10° NE visible
30 Jul - 22:50:03 10° NW 22:51:47 14° N 22:53:31 10° NNE visible
31 Jul - 00:27:22 10° NNW 00:29:16 14° NNE 00:31:09 10° NE visible
31 Jul - 02:03:12 10° NW 02:06:20 43° NNE 02:09:28 10° ESE night (unlit)
31 Jul - 03:40:04 10° W 03:42:35 21° SW 03:45:06 10° S night (unlit)
31 Jul - 18:43:44 10° SSE 18:45:32 14° SE 18:47:20 10° E daylight
31 Jul - 20:18:23 10° WSW 20:21:36 62° NW 20:24:50 10° NE daylight
31 Jul - 21:56:23 10° WNW 21:58:33 16° NNW 22:00:42 10° NNE visible
31 Jul - 23:34:29 10° NNW 23:36:00 13° N 23:37:33 10° NNE visible
01 Aug - 01:10:26 10° NW 01:13:17 27° NNE 01:16:07 10° E visible
01 Aug - 02:46:42 10° WNW 02:49:47 41° SW 02:52:52 10° SSE night (unlit)
01 Aug - 19:25:27 10° SW 19:28:41 67° SE 19:31:55 10° ENE daylight
01 Aug - 21:02:46 10° WNW 21:05:22 21° NNW 21:07:57 10° NNE visible
01 Aug - 22:41:18 10° NNW 22:42:44 12° N 22:44:09 10° NNE visible
02 Aug - 00:17:41 10° NNW 00:20:08 19° NNE 00:22:35 10° ENE visible
02 Aug - 01:53:39 10° NW 01:56:55 84° SW 02:00:10 10° SE night (unlit)
02 Aug - 18:32:52 10° SSW 18:35:49 32° SE 18:38:47 10° ENE daylight
02 Aug - 20:09:17 10° W 20:12:14 31° NNW 20:15:12 10° NE daylight
02 Aug - 21:47:49 10° NW 21:49:27 13° N 21:51:05 10° NNE visible
02 Aug - 23:24:55 10° NNW 23:26:56 15° NNE 23:28:56 10° NE visible
03 Aug - 01:00:45 10° NW 01:03:56 51° NNE 01:07:07 10° ESE visible
03 Aug - 02:37:52 10° W 02:40:07 17° SW 02:42:20 10° S night (unlit)
03 Aug - 17:40:52 10° S 17:43:03 17° SE 17:45:14 10° E daylight
03 Aug - 19:16:00 10° WSW 19:19:11 52° NNW 19:22:24 10° NE daylight
03 Aug - 20:54:10 10° NW 20:56:12 15° NNW 20:58:14 10° NNE visible
03 Aug - 22:32:04 10° NNW 22:33:40 13° N 22:35:18 10° NE visible
04 Aug - 00:07:57 10° NW 00:10:54 30° NNE 00:13:50 10° E visible
04 Aug - 01:44:21 10° WNW 01:47:20 33° SW 01:50:18 10° SSE night (unlit)
04 Aug - 18:22:59 10° SW 18:26:14 82° SE 18:29:30 10° NE daylight
04 Aug - 20:00:31 10° WNW 20:03:00 20° NNW 20:05:28 10° NNE daylight
04 Aug - 21:38:58 10° NNW 21:40:23 12° N 21:41:49 10° NNE visible
04 Aug - 23:15:11 10° NNW 23:17:46 21° NNE 23:20:20 10° ENE visible
05 Aug - 00:51:14 10° WNW 00:54:28 69° SW 00:57:42 10° SE visible
05 Aug - 17:30:17 10° SSW 17:33:21 39° SE 17:36:25 10° ENE daylight
05 Aug - 19:06:59 10° W 19:09:51 28° NNW 19:12:43 10° NE daylight
05 Aug - 20:45:33 10° NW 20:47:06 13° N 20:48:40 10° NNE visible
05 Aug - 22:22:26 10° NNW 22:24:34 16° NNE 22:26:42 10° NE visible
05 Aug - 23:58:17 10° NW 00:01:31 60° NNE 00:04:44 10° ESE visible
06 Aug - 01:35:44 10° W 01:37:37 15° SW 01:39:28 10° SSW night (unlit)
06 Aug - 16:38:04 10° S 16:40:32 20° SE 16:43:02 10° E daylight
06 Aug - 18:13:38 10° WSW 18:16:46 44° NNW 18:19:55 10° NE daylight
06 Aug - 19:51:55 10° NW 19:53:50 15° NNW 19:55:45 10° NNE daylight
06 Aug - 21:29:36 10° NNW 21:31:19 13° N 21:33:02 10° NE visible
06 Aug - 23:05:28 10° NW 23:08:29 34° NNE 23:11:30 10° E visible
07 Aug - 00:42:00 10° WNW 00:44:51 28° SW 00:47:40 10° SSE night (unlit)
07 Aug - 15:47:17 10° SE 15:47:49 10° SE 15:48:21 10° ESE daylight
07 Aug - 17:20:31 10° SW 17:23:46 83° NW 17:27:02 10° NE daylight
07 Aug - 18:58:15 10° WNW 19:00:37 18° NNW 19:02:58 10° NNE daylight
07 Aug - 20:36:35 10° NNW 20:38:02 12° N 20:39:29 10° NNE visible
07 Aug - 22:12:41 10° NNW 22:15:22 23° NNE 22:18:03 10° ENE visible
07 Aug - 23:48:48 10° WNW 23:52:00 56° SW 23:55:11 10° SE visible
